CW8593 Weather Reports


Display with metric or nautical units.
time (UTC)temp
F
wind
direction
speed
MPH
gust
MPH
rain 1hr
in
rain 24hr
in
rain mn
in
humidity
%
barometer
mb
20160830222732 71 236 0.0 1.0 0.00 0.02 0.02 82 1018.6
20160830222233 72 236 0.0 1.0 0.00 0.02 0.02 82 1018.6
20160830221733 72 236 0.0 3.0 0.00 0.02 0.02 81 1018.6
20160830220734 72 236 0.0 2.0 0.00 0.02 0.02 81 1018.6
20160830220233 72 236 1.0 3.0 0.00 0.02 0.02 81 1018.6
20160830215733 72 236 0.0 0.0 0.00 0.02 0.02 81 1018.7
20160830215233 72 236 0.0 0.0 0.00 0.02 0.02 80 1018.7
20160830214233 72 236 2.0 2.0 0.00 0.02 0.02 80 1018.6
20160830213733 72 236 0.0 2.0 0.00 0.02 0.02 80 1018.6
20160830212732 72 236 0.0 2.0 0.00 0.02 0.02 79 1018.7
20160830211733 73 236 0.0 1.0 0.00 0.02 0.02 79 1018.6
20160830210733 73 236 1.0 2.0 0.00 0.02 0.02 79 1018.6
20160830205232 73 236 1.0 3.0 0.00 0.02 0.02 78 1018.7
20160830204732 73 236 0.0 1.0 0.00 0.02 0.02 78 1018.7
20160830204233 73 236 0.0 3.0 0.00 0.02 0.02 78 1018.7
20160830203732 73 236 0.0 2.0 0.00 0.02 0.02 78 1018.7
20160830203233 73 236 0.0 1.0 0.00 0.02 0.02 78 1018.3
20160830202732 73 236 0.0 1.0 0.00 0.02 0.02 78 1018.3
20160830202232 73 236 0.0 1.0 0.00 0.02 0.02 78 1018.3
20160830200732 74 236 0.0 0.0 0.00 0.02 0.02 77 1018.3
20160830200232 74 236 0.0 1.0 0.00 0.02 0.02 78 1018.3
20160830194733 74 236 0.0 2.0 0.00 0.02 0.02 77 1018.2
20160830194232 74 236 1.0 3.0 0.00 0.02 0.02 77 1018.2
20160830192734 74 236 1.0 2.0 0.00 0.02 0.02 77 1018.0
20160830192233 74 236 0.0 1.0 0.00 0.02 0.02 76 1018.0
20160830191733 74 236 0.0 0.0 0.00 0.02 0.02 76 1017.8
20160830191232 74 236 0.0 2.0 0.00 0.02 0.02 76 1017.8
20160830190233 74 236 2.0 3.0 0.00 0.02 0.02 76 1017.8
20160830185733 75 236 1.0 3.0 0.00 0.02 0.02 75 1017.8
20160830185232 75 236 0.0 2.0 0.00 0.02 0.02 75 1017.7
20160830184732 75 236 0.0 1.0 0.00 0.02 0.02 75 1017.7
20160830183232 75 236 1.0 3.0 0.00 0.02 0.02 75 1017.6
20160830181732 75 233 1.0 6.0 0.00 0.02 0.02 75 1017.4
20160830181232 75 232 2.0 5.0 0.00 0.02 0.02 75 1017.2
20160830180232 75 240 1.0 6.0 0.00 0.02 0.02 75 1017.2
20160830175732 76 238 3.0 7.0 0.00 0.02 0.02 74 1017.2
20160830175232 76 217 5.0 7.0 0.00 0.02 0.02 74 1017.2
20160830174733 76 254 3.0 6.0 0.00 0.02 0.02 74 1017.1
20160830174232 76 202 2.0 7.0 0.00 0.02 0.02 74 1017.0
20160830173232 76 210 4.0 8.0 0.00 0.02 0.02 73 1017.0
20160830172732 76 208 5.0 9.0 0.00 0.02 0.02 73 1016.9
20160830172232 76 207 3.0 8.0 0.00 0.02 0.02 73 1016.9
20160830171732 76 249 3.0 7.0 0.00 0.02 0.02 73 1016.9
20160830171232 76 191 5.0 12.0 0.00 0.02 0.02 73 1016.9
20160830170232 76 193 5.0 10.0 0.00 0.02 0.02 73 1017.0
20160830165733 76 98 0.0 7.0 0.00 0.02 0.02 74 1017.0
20160830164732 76 190 6.0 12.0 0.00 0.02 0.02 74 1017.0
20160830162733 76 209 7.0 12.0 0.00 0.02 0.02 73 1017.1
20160830162232 76 198 5.0 12.0 0.00 0.02 0.02 74 1017.1
20160830161231 76 201 3.0 12.0 0.00 0.02 0.02 74 1017.1
20160830160232 76 220 9.0 14.0 0.00 0.02 0.02 74 1017.2
20160830155232 76 212 7.0 14.0 0.00 0.02 0.02 74 1017.3
20160830154732 76 211 7.0 13.0 0.00 0.02 0.02 74 1017.3
20160830154232 76 208 6.0 13.0 0.00 0.02 0.02 75 1017.3
20160830153733 76 217 4.0 12.0 0.00 0.02 0.02 75 1017.3
20160830152232 75 231 6.0 12.0 0.00 0.02 0.02 77 1017.5
20160830150732 75 219 7.0 12.0 0.00 0.02 0.02 78 1017.5
20160830150232 75 222 7.0 13.0 0.00 0.02 0.02 79 1017.5
20160830145732 75 231 3.0 14.0 0.00 0.02 0.02 79 1017.5
20160830145232 75 205 9.0 13.0 0.00 0.02 0.02 79 1017.5
20160830144733 75 197 7.0 14.0 0.00 0.02 0.02 79 1017.5
20160830142732 75 198 6.0 14.0 0.00 0.02 0.02 79 1017.6
20160830141732 75 196 9.0 16.0 0.00 0.02 0.02 79 1017.6
20160830135231 75 209 6.0 13.0 0.00 0.02 0.02 78 1017.7
20160830133732 75 205 7.0 12.0 0.00 0.02 0.02 79 1017.8
20160830133232 75 210 7.0 13.0 0.00 0.02 0.02 79 1018.1
20160830132232 74 230 7.0 15.0 0.00 0.02 0.02 79 1018.2
20160830130232 74 217 8.0 15.0 0.00 0.02 0.02 81 1018.4
20160830125732 74 215 5.0 12.0 0.00 0.02 0.02 81 1018.4
20160830123733 74 219 9.0 14.0 0.00 0.02 0.02 82 1018.4
20160830122732 74 220 5.0 16.0 0.00 0.02 0.02 82 1018.4
20160830122232 74 204 6.0 14.0 0.00 0.02 0.02 82 1018.5
20160830121732 74 226 8.0 12.0 0.00 0.02 0.02 82 1018.5
20160830120732 74 212 6.0 12.0 0.00 0.02 0.02 81 1018.5
20160830120232 75 220 10.0 17.0 0.00 0.02 0.02 79 1018.5
20160830114231 75 206 5.0 8.0 0.00 0.02 0.02 76 1018.6
20160830112731 74 198 3.0 9.0 0.00 0.02 0.02 74 1018.7
20160830112232 74 223 5.0 10.0 0.00 0.02 0.02 74 1018.7
20160830111733 75 225 7.0 12.0 0.00 0.02 0.02 72 1018.7
20160830111231 75 212 7.0 12.0 0.00 0.02 0.02 70 1018.7
20160830110231 76 232 5.0 9.0 0.00 0.02 0.02 67 1018.7
20160830104232 76 180 2.0 7.0 0.00 0.02 0.02 69 1018.7
20160830102732 76 185 3.0 7.0 0.00 0.02 0.02 67 1018.8
20160830102231 76 204 5.0 7.0 0.00 0.02 0.02 68 1018.8
20160830101732 76 142 4.0 7.0 0.00 0.02 0.02 68 1018.9
20160830101231 76 138 4.0 7.0 0.00 0.02 0.02 67 1018.9
20160830100732 76 123 5.0 9.0 0.00 0.02 0.02 67 1018.9
20160830095732 77 142 5.0 8.0 0.00 0.02 0.02 64 1018.9
20160830095232 77 136 3.0 6.0 0.00 0.02 0.02 63 1018.9
20160830094732 77 152 3.0 5.0 0.00 0.02 0.02 62 1018.9
20160830093732 77 95 4.0 9.0 0.00 0.02 0.02 57 1019.0
20160830091731 76 78 5.0 8.0 0.00 0.02 0.02 56 1018.8
20160830091232 76 108 6.0 12.0 0.00 0.02 0.02 56 1018.8
20160830090732 77 118 6.0 12.0 0.00 0.02 0.02 55 1018.8
20160830085232 77 65 6.0 14.0 0.00 0.02 0.02 55 1018.7
20160830084732 77 96 5.0 10.0 0.00 0.02 0.02 56 1018.7
20160830083731 77 108 4.0 8.0 0.00 0.02 0.02 56 1018.7
20160830082231 76 59 1.0 7.0 0.00 0.02 0.02 58 1018.7
20160830080732 75 41 3.0 8.0 0.00 0.02 0.02 59 1018.8
20160830075732 75 67 4.0 8.0 0.00 0.02 0.02 60 1018.8
20160830074732 75 31 3.0 7.0 0.00 0.02 0.02 60 1018.7
20160830074232 75 67 3.0 7.0 0.00 0.02 0.02 62 1018.7
20160830073232 74 52 4.0 10.0 0.00 0.02 0.02 64 1018.7
20160830072731 74 63 6.0 12.0 0.00 0.02 0.02 66 1018.6
20160830070732 73 52 2.0 3.0 0.00 0.02 0.02 75 1018.5
20160830065732 72 52 2.0 3.0 0.00 0.02 0.02 75 1018.4
20160830065232 72 52 3.0 5.0 0.00 0.02 0.02 75 1018.4
20160830063731 73 84 1.0 6.0 0.00 0.02 0.02 77 1018.3
20160830063232 73 85 3.0 5.0 0.00 0.02 0.02 76 1018.2
20160830061731 72 79 4.0 7.0 0.00 0.02 0.02 82 1018.2
20160830061231 72 90 5.0 9.0 0.00 0.02 0.02 85 1018.2
20160830060732 72 341 2.0 3.0 0.00 0.02 0.02 86 1017.9
20160830055231 72 340 3.0 6.0 0.00 0.02 0.02 87 1017.9
20160830054731 72 320 3.0 6.0 0.00 0.02 0.02 87 1017.8
20160830054232 72 319 3.0 5.0 0.00 0.02 0.02 87 1017.8
20160830053732 73 262 2.0 3.0 0.00 0.02 0.02 88 1017.8
20160830053231 73 262 2.0 3.0 0.00 0.02 0.02 88 1017.6
20160830052732 73 262 0.0 2.0 0.00 0.02 0.02 88 1017.6
20160830052231 73 262 0.0 2.0 0.00 0.02 0.02 88 1017.6
20160830051231 73 262 0.0 0.0 0.00 0.02 0.02 88 1017.6
20160830050731 73 262 0.0 0.0 0.00 0.02 0.02 88 1017.6
20160830050231 73 262 0.0 0.0 0.00 0.02 0.02 88 1017.6
20160830045731 73 262 0.0 0.0 0.00 0.02 0.02 88 1017.5
20160830041231 73 201 0.0 0.0 0.00 0.02 0.02 88 1017.2
20160830040732 73 201 0.0 1.0 0.00 0.02 0.02 87 1017.2
20160830040231 73 201 0.0 0.0 0.02 0.02 0.02 87 1017.2
20160830034232 73 201 0.0 3.0 0.02 0.02 0.02 87 1017.2
20160830033732 73 201 2.0 3.0 0.02 0.02 0.02 87 1017.2
20160830032231 74 201 0.0 1.0 0.02 0.02 0.02 86 1017.1
20160830031231 74 201 0.0 2.0 0.02 0.02 0.02 85 1017.0
20160830030731 74 202 0.0 3.0 0.02 0.02 0.02 85 1017.0
20160830025231 74 175 6.0 8.0 0.00 0.00 0.00 83 1017.2
20160830024733 74 219 3.0 6.0 0.00 0.00 0.00 82 1017.3
20160830023732 75 207 7.0 12.0 0.00 0.00 0.00 80 1017.3
20160830023232 76 224 1.0 3.0 0.00 0.00 0.00 79 1017.1
20160830022731 76 224 1.0 2.0 0.00 0.00 0.00 79 1017.1
20160830021731 76 224 0.0 1.0 0.00 0.00 0.00 79 1017.1
20160830020231 76 224 0.0 0.0 0.00 0.00 0.00 78 1017.4
20160830015732 77 224 0.0 0.0 0.00 0.00 0.00 78 1017.4
20160830012231 76 224 0.0 0.0 0.00 0.00 0.00 76 1017.6
20160830011732 76 224 0.0 0.0 0.00 0.00 0.00 76 1017.6
20160830011232 76 224 0.0 1.0 0.00 0.00 0.00 76 1017.6
20160830010732 76 224 0.0 0.0 0.00 0.00 0.00 75 1017.6
20160830010231 76 224 0.0 0.0 0.00 0.00 0.00 75 1017.7
20160830005231 76 224 0.0 1.0 0.00 0.00 0.00 75 1017.7
20160830004731 76 224 0.0 2.0 0.00 0.00 0.00 75 1017.7
20160830003732 76 224 1.0 2.0 0.00 0.00 0.00 75 1017.7
20160830002732 76 224 0.0 1.0 0.00 0.00 0.00 75 1017.8
20160830002233 76 224 0.0 1.0 0.00 0.00 0.00 75 1017.8
20160830001731 76 224 0.0 1.0 0.00 0.00 0.00 75 1017.9
20160830000732 76 224 0.0 0.0 0.00 0.00 0.00 74 1018.1
20160830000232 76 224 0.0 0.0 0.00 0.00 0.00 74 1018.1
20160829235231 76 224 0.0 0.0 0.00 0.00 0.00 74 1018.1
20160829234731 76 224 0.0 0.0 0.00 0.00 0.00 74 1018.2
20160829233231 76 224 0.0 0.0 0.00 0.00 0.00 74 1018.2
20160829232234 76 224 0.0 1.0 0.00 0.00 0.00 74 1018.2
20160829231231 76 224 0.0 0.0 0.00 0.00 0.00 74 1018.1
20160829224731 76 224 0.0 1.0 0.00 0.00 0.00 73 1018.1
20160829223731 75 224 0.0 2.0 0.00 0.00 0.00 73 1018.1